Powrót do katalogu

STARLINK-36828

AktywnyŁącznośćVLEO
NORAD 67857·PAYLOAD·🇺🇸 United States

Wystrzelony Feb 20, 2026 z Vandenberg Space Force Base

Loading…

Następne Przeloty (najbliższe 24 godziny)

TLE

ŚwieżeSource: CelesTrak SupGP

Epoka: Sep 14, 2026, 21:02 UTC

1 67857C 26034H   26257.87687500  .00051011  00000+0  16408-2 0  2576
2 67857  53.1587  44.1855 0001186  80.3154 127.2659 15.31668614    12

Śledź STARLINK-36828 w czasie rzeczywistym z AllMySat

Download on the App Store